| time (UTC) | temp C | wind direction | speed KPH | gust KPH | rain 1hr cm | rain 24hr cm | rain mn cm | humidity % | barometer mb |
| 20260504004541 | 10 | 0 | 1.6 | 6.4 | 0.00 | 0.00 | 0.00 | 48 | 1011.9 |
| 20260504004028 | 10 | 0 | 1.6 | 8.0 | 0.00 | 0.00 | 0.00 | 47 | 1011.8 |
| 20260504003526 | 10 | 183 | 1.6 | 8.0 | 0.00 | 0.00 | 0.00 | 47 | 1011.8 |
| 20260504003046 | 10 | 216 | 3.2 | 9.7 | 0.00 | 0.00 | 0.00 | 45 | 1011.8 |
| 20260504002531 | 10 | 0 | 1.6 | 17.7 | 0.00 | 0.00 | 0.00 | 47 | 1011.7 |
| 20260504002026 | 10 | 0 | 3.2 | 17.7 | 0.00 | 0.00 | 0.00 | 46 | 1011.8 |
| 20260504001550 | 11 | 205 | 1.6 | 8.0 | 0.00 | 0.00 | 0.00 | 45 | 1011.7 |
| 20260504001030 | 11 | 215 | 1.6 | 12.9 | 0.00 | 0.00 | 0.00 | 45 | 1011.7 |
| 20260504000528 | 11 | 220 | 3.2 | 12.9 | 0.00 | 0.00 | 0.00 | 45 | 1011.7 |
| 20260504000113 | 11 | 198 | 1.6 | 9.7 | 0.00 | 0.00 | 0.00 | 45 | 1011.5 |
| 20260503235527 | 11 | 259 | 3.2 | 8.0 | 0.00 | 0.00 | 0.00 | 44 | 1011.5 |
| 20260503235027 | 11 | 279 | 0.0 | 11.3 | 0.00 | 0.00 | 0.00 | 44 | 1011.6 |
| 20260503234543 | 11 | 246 | 1.6 | 11.3 | 0.00 | 0.00 | 0.00 | 43 | 1011.5 |
| 20260503234027 | 11 | 250 | 1.6 | 6.4 | 0.00 | 0.00 | 0.00 | 44 | 1011.4 |
| 20260503233530 | 11 | 0 | 0.0 | 9.7 | 0.00 | 0.00 | 0.00 | 45 | 1011.3 |
| 20260503233040 | 11 | 289 | 1.6 | 9.7 | 0.00 | 0.00 | 0.00 | 44 | 1011.4 |
| 20260503232530 | 12 | 182 | 3.2 | 16.1 | 0.00 | 0.00 | 0.00 | 43 | 1011.3 |
| 20260503232026 | 12 | 0 | 3.2 | 16.1 | 0.00 | 0.00 | 0.00 | 42 | 1011.2 |
| 20260503231541 | 12 | 208 | 4.8 | 17.7 | 0.00 | 0.00 | 0.00 | 42 | 1011.3 |
| 20260503231031 | 12 | 219 | 3.2 | 17.7 | 0.00 | 0.00 | 0.00 | 43 | 1011.3 |
| 20260503230526 | 12 | 240 | 4.8 | 19.3 | 0.00 | 0.00 | 0.00 | 42 | 1011.2 |
| 20260503230053 | 12 | 204 | 4.8 | 20.9 | 0.00 | 0.00 | 0.00 | 41 | 1011.2 |
| 20260503225528 | 12 | 250 | 8.0 | 20.9 | 0.00 | 0.00 | 0.00 | 41 | 1011.1 |
| 20260503225029 | 12 | 173 | 1.6 | 11.3 | 0.00 | 0.00 | 0.00 | 42 | 1011.1 |
| 20260503224547 | 12 | 188 | 3.2 | 19.3 | 0.00 | 0.00 | 0.00 | 43 | 1011.2 |
| 20260503224029 | 12 | 242 | 4.8 | 19.3 | 0.00 | 0.00 | 0.00 | 45 | 1011.2 |
| 20260503223528 | 12 | 226 | 4.8 | 19.3 | 0.00 | 0.00 | 0.00 | 43 | 1011.2 |
| 20260503223045 | 12 | 178 | 3.2 | 24.1 | 0.00 | 0.00 | 0.00 | 43 | 1011.2 |
| 20260503222527 | 12 | 292 | 6.4 | 24.1 | 0.00 | 0.00 | 0.00 | 42 | 1011.2 |
| 20260503222028 | 12 | 242 | 1.6 | 12.9 | 0.00 | 0.00 | 0.00 | 43 | 1011.2 |
| 20260503221543 | 12 | 279 | 3.2 | 12.9 | 0.00 | 0.00 | 0.00 | 45 | 1011.2 |
| 20260503221027 | 12 | 215 | 3.2 | 19.3 | 0.00 | 0.00 | 0.00 | 44 | 1011.3 |
| 20260503220527 | 12 | 221 | 3.2 | 19.3 | 0.00 | 0.00 | 0.00 | 43 | 1011.3 |
| 20260503220042 | 12 | 221 | 4.8 | 19.3 | 0.00 | 0.00 | 0.00 | 41 | 1011.3 |
| 20260503215530 | 12 | 213 | 3.2 | 19.3 | 0.00 | 0.00 | 0.00 | 42 | 1011.3 |
| 20260503215027 | 12 | 319 | 4.8 | 20.9 | 0.00 | 0.00 | 0.00 | 43 | 1011.3 |
| 20260503214540 | 12 | 233 | 4.8 | 20.9 | 0.00 | 0.00 | 0.00 | 44 | 1011.3 |
| 20260503214029 | 12 | 220 | 6.4 | 19.3 | 0.00 | 0.00 | 0.00 | 42 | 1011.3 |
| 20260503213526 | 12 | 0 | 4.8 | 20.9 | 0.00 | 0.00 | 0.00 | 44 | 1011.2 |
| 20260503213044 | 12 | 253 | 8.0 | 20.9 | 0.00 | 0.00 | 0.00 | 41 | 1011.1 |
| 20260503212526 | 12 | 227 | 1.6 | 9.7 | 0.00 | 0.00 | 0.00 | 43 | 1011.3 |
| 20260503212026 | 12 | 258 | 3.2 | 16.1 | 0.00 | 0.00 | 0.00 | 43 | 1011.2 |
| 20260503211547 | 12 | 213 | 4.8 | 16.1 | 0.00 | 0.00 | 0.00 | 42 | 1011.2 |
| 20260503211028 | 13 | 0 | 3.2 | 19.3 | 0.00 | 0.00 | 0.00 | 42 | 1011.2 |
| 20260503210526 | 13 | 313 | 6.4 | 19.3 | 0.00 | 0.00 | 0.00 | 42 | 1011.2 |
| 20260503210044 | 12 | 253 | 3.2 | 25.7 | 0.00 | 0.00 | 0.00 | 46 | 1011.1 |
| 20260503205526 | 12 | 184 | 9.7 | 25.7 | 0.00 | 0.00 | 0.00 | 43 | 1011.2 |
| 20260503205027 | 12 | 255 | 3.2 | 16.1 | 0.00 | 0.00 | 0.00 | 43 | 1011.3 |
| 20260503204543 | 12 | 244 | 1.6 | 16.1 | 0.00 | 0.00 | 0.00 | 43 | 1011.3 |
| 20260503204026 | 12 | 311 | 3.2 | 16.1 | 0.00 | 0.00 | 0.00 | 43 | 1011.3 |
| 20260503203532 | 12 | 178 | 6.4 | 16.1 | 0.00 | 0.00 | 0.00 | 43 | 1011.2 |
| 20260503203044 | 12 | 263 | 4.8 | 12.9 | 0.00 | 0.00 | 0.00 | 43 | 1011.3 |
| 20260503202527 | 12 | 248 | 3.2 | 16.1 | 0.00 | 0.00 | 0.00 | 44 | 1011.4 |
| 20260503202031 | 12 | 284 | 3.2 | 19.3 | 0.00 | 0.00 | 0.00 | 43 | 1011.2 |
| 20260503201539 | 12 | 194 | 6.4 | 19.3 | 0.00 | 0.00 | 0.00 | 44 | 1011.3 |
| 20260503201026 | 12 | 250 | 4.8 | 19.3 | 0.00 | 0.00 | 0.00 | 44 | 1011.3 |
| 20260503200529 | 12 | 232 | 4.8 | 19.3 | 0.00 | 0.00 | 0.00 | 43 | 1011.4 |
| 20260503200048 | 12 | 238 | 6.4 | 19.3 | 0.00 | 0.00 | 0.00 | 42 | 1011.5 |
| 20260503195526 | 13 | 165 | 4.8 | 16.1 | 0.00 | 0.00 | 0.00 | 42 | 1011.5 |
| 20260503195026 | 13 | 211 | 3.2 | 14.5 | 0.00 | 0.00 | 0.00 | 43 | 1011.7 |
| 20260503194538 | 13 | 235 | 1.6 | 14.5 | 0.00 | 0.00 | 0.00 | 44 | 1011.8 |
| 20260503194026 | 13 | 272 | 3.2 | 22.5 | 0.00 | 0.00 | 0.00 | 46 | 1011.8 |
| 20260503193530 | 13 | 230 | 4.8 | 22.5 | 0.00 | 0.00 | 0.00 | 45 | 1012.0 |
| 20260503193046 | 13 | 229 | 6.4 | 22.5 | 0.00 | 0.00 | 0.00 | 44 | 1012.0 |
| 20260503192527 | 13 | 271 | 3.2 | 16.1 | 0.00 | 0.00 | 0.00 | 45 | 1012.0 |
| 20260503192032 | 13 | 266 | 6.4 | 20.9 | 0.00 | 0.00 | 0.00 | 44 | 1012.0 |
| 20260503191543 | 13 | 306 | 8.0 | 24.1 | 0.00 | 0.00 | 0.00 | 42 | 1012.0 |
| 20260503191027 | 13 | 257 | 4.8 | 24.1 | 0.00 | 0.00 | 0.00 | 42 | 1012.2 |
| 20260503190527 | 13 | 81 | 8.0 | 22.5 | 0.00 | 0.00 | 0.00 | 42 | 1012.1 |
| 20260503190042 | 13 | 246 | 4.8 | 16.1 | 0.00 | 0.00 | 0.00 | 46 | 1012.1 |
| 20260503185526 | 13 | 332 | 4.8 | 17.7 | 0.00 | 0.00 | 0.00 | 41 | 1012.1 |
| 20260503185029 | 13 | 226 | 4.8 | 17.7 | 0.00 | 0.00 | 0.00 | 44 | 1012.2 |
| 20260503184558 | 13 | 212 | 4.8 | 16.1 | 0.00 | 0.00 | 0.00 | 44 | 1012.1 |
| 20260503184027 | 13 | 309 | 3.2 | 24.1 | 0.00 | 0.00 | 0.00 | 42 | 1012.1 |
| 20260503183527 | 13 | 273 | 6.4 | 24.1 | 0.00 | 0.00 | 0.00 | 43 | 1012.0 |
| 20260503183037 | 13 | 228 | 6.4 | 20.9 | 0.00 | 0.00 | 0.00 | 46 | 1012.2 |
| 20260503182528 | 13 | 277 | 6.4 | 20.9 | 0.00 | 0.00 | 0.00 | 43 | 1012.3 |
| 20260503182026 | 13 | 296 | 6.4 | 19.3 | 0.00 | 0.00 | 0.00 | 45 | 1012.3 |
| 20260503181554 | 13 | 194 | 6.4 | 16.1 | 0.00 | 0.00 | 0.00 | 42 | 1012.2 |
| 20260503181031 | 12 | 100 | 6.4 | 17.7 | 0.00 | 0.00 | 0.00 | 43 | 1012.4 |
| 20260503180525 | 12 | 330 | 4.8 | 19.3 | 0.00 | 0.00 | 0.00 | 42 | 1012.4 |
| 20260503180047 | 12 | 195 | 3.2 | 19.3 | 0.00 | 0.00 | 0.00 | 43 | 1012.5 |
| 20260503175525 | 12 | 242 | 4.8 | 19.3 | 0.00 | 0.00 | 0.00 | 43 | 1012.4 |
| 20260503175025 | 12 | 231 | 6.4 | 17.7 | 0.00 | 0.00 | 0.00 | 41 | 1012.4 |
| 20260503174543 | 13 | 227 | 6.4 | 25.7 | 0.00 | 0.00 | 0.00 | 40 | 1012.5 |
| 20260503174030 | 13 | 234 | 6.4 | 25.7 | 0.00 | 0.00 | 0.00 | 43 | 1012.5 |
| 20260503173525 | 13 | 279 | 6.4 | 19.3 | 0.00 | 0.00 | 0.00 | 40 | 1012.5 |
| 20260503173043 | 13 | 231 | 3.2 | 19.3 | 0.00 | 0.00 | 0.00 | 46 | 1012.6 |
| 20260503172524 | 13 | 281 | 4.8 | 19.3 | 0.00 | 0.00 | 0.00 | 44 | 1012.6 |
| 20260503172026 | 13 | 244 | 6.4 | 19.3 | 0.00 | 0.00 | 0.00 | 44 | 1012.8 |
| 20260503171602 | 12 | 274 | 3.2 | 16.1 | 0.00 | 0.00 | 0.00 | 46 | 1012.7 |
| 20260503171028 | 12 | 192 | 4.8 | 20.9 | 0.00 | 0.00 | 0.00 | 44 | 1012.7 |
| 20260503170528 | 12 | 315 | 4.8 | 20.9 | 0.00 | 0.00 | 0.00 | 48 | 1012.8 |
| 20260503150527 | 8 | 288 | 3.2 | 16.1 | 0.00 | 0.00 | 0.00 | 50 | 1013.9 |
| 20260503131025 | 6 | 277 | 1.6 | 14.5 | 0.00 | 0.00 | 0.00 | 60 | 1014.3 |
| 20260503130526 | 5 | 240 | 1.6 | 8.0 | 0.00 | 0.00 | 0.00 | 62 | 1014.4 |
| 20260503110526 | 0 | 0 | 0.0 | 1.6 | 0.00 | 0.00 | 0.00 | 86 | 1014.2 |
| 20260503081542 | 0 | 0 | 0.0 | 4.8 | 0.00 | 0.00 | 0.00 | 83 | 1013.4 |
| 20260503081030 | 0 | 0 | 0.0 | 3.2 | 0.00 | 0.00 | 0.00 | 83 | 1013.3 |
| 20260503080526 | 0 | 0 | 0.0 | 1.6 | 0.00 | 0.00 | 0.00 | 83 | 1013.3 |
| 20260503072530 | 0 | 0 | 0.0 | 0.0 | 0.00 | 0.00 | 0.00 | 82 | 1013.3 |
| 20260503072026 | 0 | 0 | 0.0 | 1.6 | 0.00 | 0.00 | 0.00 | 82 | 1013.2 |
| 20260503071604 | 0 | 0 | 0.0 | 3.2 | 0.00 | 0.00 | 0.00 | 81 | 1013.3 |
| 20260503071026 | 0 | 0 | 0.0 | 3.2 | 0.00 | 0.00 | 0.00 | 81 | 1013.3 |
| 20260503070526 | 0 | 0 | 0.0 | 3.2 | 0.00 | 0.00 | 0.00 | 81 | 1013.3 |
| 20260503055030 | 1 | 255 | 0.0 | 4.8 | 0.00 | 0.00 | 0.00 | 80 | 1013.7 |
| 20260503054557 | 1 | 0 | 0.0 | 3.2 | 0.00 | 0.00 | 0.00 | 80 | 1013.7 |
| 20260503054026 | 1 | 0 | 0.0 | 1.6 | 0.00 | 0.00 | 0.00 | 80 | 1013.7 |
| 20260503053528 | 1 | 263 | 0.0 | 0.0 | 0.00 | 0.00 | 0.00 | 80 | 1013.8 |
| 20260503053042 | 1 | 0 | 0.0 | 1.6 | 0.00 | 0.00 | 0.00 | 81 | 1013.7 |
| 20260503052526 | 1 | 0 | 0.0 | 1.6 | 0.00 | 0.00 | 0.00 | 81 | 1013.8 |
| 20260503052028 | 1 | 0 | 0.0 | 1.6 | 0.00 | 0.00 | 0.00 | 81 | 1013.9 |
| 20260503051541 | 1 | 0 | 0.0 | 1.6 | 0.00 | 0.00 | 0.00 | 81 | 1013.9 |
| 20260503051028 | 1 | 0 | 0.0 | 3.2 | 0.00 | 0.00 | 0.00 | 81 | 1013.9 |
| 20260503050528 | 1 | 0 | 0.0 | 3.2 | 0.00 | 0.00 | 0.00 | 81 | 1013.9 |
| 20260503050046 | 1 | 267 | 0.0 | 3.2 | 0.00 | 0.00 | 0.00 | 81 | 1014.1 |
| 20260503045529 | 1 | 0 | 0.0 | 1.6 | 0.00 | 0.00 | 0.00 | 81 | 1014.0 |